Time,TemperatureF,DewpointF,PressureIn,WindDirection,WindDirectionDegrees,WindSpeedMPH,WindSpeedGustMPH,Humidity,HourlyPrecipIn,Conditions,Clouds,dailyrainin,SoftwareType,DateUTC
2013-11-28 00:00:00,28.0,16.3,29.91,NE,45,0.0,0.0,61,0.00,,,0.00,WUHU21623XXSP,2013-11-28 08:00:00,
2013-11-28 00:05:00,27.7,16.0,29.91,ENE,67,0.0,0.0,61,0.00,,,0.00,WUHU21623XXSP,2013-11-28 08:05:00,
2013-11-28 00:10:00,27.7,16.0,29.91,ENE,67,0.0,0.0,61,0.00,,,0.00,WUHU21623XXSP,2013-11-28 08:10:00,
2013-11-28 00:15:00,27.7,16.0,29.91,ESE,112,0.0,0.0,61,0.00,,,0.00,WUHU21623XXSP,2013-11-28 08:15:00,
2013-11-28 00:20:00,27.5,16.2,29.90,SE,135,0.0,0.0,62,0.00,,,0.00,WUHU21623XXSP,2013-11-28 08:20:00,
2013-11-28 00:25:00,27.3,15.6,29.90,East,90,0.0,0.0,61,0.00,,,0.00,WUHU21623XXSP,2013-11-28 08:25:00,
2013-11-28 00:33:00,27.1,15.8,29.90,SE,135,0.0,0.0,62,0.00,,,0.00,WUHU21623XXSP,2013-11-28 08:33:00,
2013-11-28 00:38:00,27.1,15.8,29.91,SE,135,0.0,0.0,62,0.00,,,0.00,WUHU21623XXSP,2013-11-28 08:38:00,
2013-11-28 00:43:00,27.1,15.8,29.91,SE,135,0.0,0.0,62,0.00,,,0.00,WUHU21623XXSP,2013-11-28 08:43:00,
2013-11-28 00:48:00,27.1,16.2,29.90,SSE,157,0.0,0.0,63,0.00,,,0.00,WUHU21623XXSP,2013-11-28 08:48:00,
2013-11-28 00:53:00,27.0,16.0,29.90,South,180,0.0,0.0,63,0.00,,,0.00,WUHU21623XXSP,2013-11-28 08:53:00,
2013-11-28 00:58:00,27.0,16.0,29.90,NW,315,0.0,0.0,63,0.00,,,0.00,WUHU21623XXSP,2013-11-28 08:58:00,
2013-11-28 01:03:00,26.8,15.8,29.90,North,0,0.0,0.0,63,0.00,,,0.00,WUHU21623XXSP,2013-11-28 09:03:00,
2013-11-28 01:10:00,26.6,15.6,29.90,NW,315,0.0,0.0,63,0.00,,,0.00,WUHU21623XXSP,2013-11-28 09:10:00,
2013-11-28 01:15:00,26.6,15.6,29.90,NW,315,0.0,0.0,63,0.00,,,0.00,WUHU21623XXSP,2013-11-28 09:15:00,
2013-11-28 01:20:00,26.6,16.0,29.90,WNW,292,0.0,0.0,64,0.00,,,0.00,WUHU21623XXSP,2013-11-28 09:20:00,
2013-11-28 01:25:00,26.6,16.0,29.90,WNW,292,0.0,0.0,64,0.00,,,0.00,WUHU21623XXSP,2013-11-28 09:25:00,
2013-11-28 01:30:00,26.4,15.8,29.90,NW,315,0.0,0.0,64,0.00,,,0.00,WUHU21623XXSP,2013-11-28 09:30:00,
2013-11-28 01:35:00,26.4,15.8,29.90,NW,315,0.0,0.0,64,0.00,,,0.00,WUHU21623XXSP,2013-11-28 09:35:00,
2013-11-28 01:40:00,26.4,15.8,29.90,NW,315,0.0,0.0,64,0.00,,,0.00,WUHU21623XXSP,2013-11-28 09:40:00,
2013-11-28 01:46:00,26.4,15.8,29.90,NW,315,0.0,0.0,64,0.00,,,0.00,WUHU21623XXSP,2013-11-28 09:46:00,
2013-11-28 01:55:00,26.6,16.0,29.91,NW,315,0.0,0.0,64,0.00,,,0.00,WUHU21623XXSP,2013-11-28 09:55:00,
2013-11-28 02:05:00,26.6,16.3,29.91,NW,315,0.0,0.0,65,0.00,,,0.00,WUHU21623XXSP,2013-11-28 10:05:00,
2013-11-28 02:10:00,26.8,16.5,29.90,NW,315,0.0,0.0,65,0.00,,,0.00,WUHU21623XXSP,2013-11-28 10:10:00,
2013-11-28 02:15:00,26.8,16.5,29.91,NW,315,0.0,0.0,65,0.00,,,0.00,WUHU21623XXSP,2013-11-28 10:15:00,
2013-11-28 02:20:00,26.8,16.5,29.91,NE,45,0.0,0.0,65,0.00,,,0.00,WUHU21623XXSP,2013-11-28 10:20:00,
2013-11-28 02:29:00,26.8,16.9,29.90,NE,45,0.0,0.0,66,0.00,,,0.00,WUHU21623XXSP,2013-11-28 10:29:00,
2013-11-28 02:39:00,26.8,16.9,29.91,South,180,0.0,0.0,66,0.00,,,0.00,WUHU21623XXSP,2013-11-28 10:39:00,
2013-11-28 02:44:00,26.8,16.9,29.91,NW,315,0.0,0.0,66,0.00,,,0.00,WUHU21623XXSP,2013-11-28 10:44:00,
2013-11-28 02:50:00,26.6,16.7,29.90,NW,315,0.0,0.0,66,0.00,,,0.00,WUHU21623XXSP,2013-11-28 10:50:00,
2013-11-28 02:55:00,26.6,16.7,29.90,NNW,337,0.0,0.0,66,0.00,,,0.00,WUHU21623XXSP,2013-11-28 10:55:00,
2013-11-28 03:00:00,26.4,16.5,29.90,NNW,337,0.0,0.0,66,0.00,,,0.00,WUHU21623XXSP,2013-11-28 11:00:00,
2013-11-28 03:05:00,26.4,16.5,29.91,NE,45,0.0,0.0,66,0.00,,,0.00,WUHU21623XXSP,2013-11-28 11:05:00,
2013-11-28 03:10:00,26.4,16.5,29.90,ESE,112,0.0,0.0,66,0.00,,,0.00,WUHU21623XXSP,2013-11-28 11:10:00,
2013-11-28 03:15:00,26.4,16.5,29.91,ESE,112,0.0,0.0,66,0.00,,,0.00,WUHU21623XXSP,2013-11-28 11:15:00,
2013-11-28 03:20:00,26.4,16.9,29.91,SE,135,0.0,0.0,67,0.00,,,0.00,WUHU21623XXSP,2013-11-28 11:20:00,
2013-11-28 03:25:00,26.2,16.7,29.91,NE,45,0.0,0.0,67,0.00,,,0.00,WUHU21623XXSP,2013-11-28 11:25:00,
2013-11-28 03:40:00,26.1,16.5,29.91,NE,45,0.0,0.0,67,0.00,,,0.00,WUHU21623XXSP,2013-11-28 11:40:00,
2013-11-28 03:48:00,25.7,16.2,29.91,WSW,247,0.0,0.0,67,0.00,,,0.00,WUHU21623XXSP,2013-11-28 11:48:00,
2013-11-28 03:53:00,25.7,16.2,29.91,West,270,0.0,0.0,67,0.00,,,0.00,WUHU21623XXSP,2013-11-28 11:53:00,
2013-11-28 03:58:00,25.5,16.0,29.91,WNW,292,0.0,0.0,67,0.00,,,0.00,WUHU21623XXSP,2013-11-28 11:58:00,
2013-11-28 04:03:00,25.5,16.0,29.91,WNW,292,0.0,0.0,67,0.00,,,0.00,WUHU21623XXSP,2013-11-28 12:03:00,
2013-11-28 04:08:00,25.5,16.0,29.91,WNW,292,0.0,0.0,67,0.00,,,0.00,WUHU21623XXSP,2013-11-28 12:08:00,
2013-11-28 04:14:00,25.3,15.8,29.91,North,0,0.0,0.0,67,0.00,,,0.00,WUHU21623XXSP,2013-11-28 12:14:00,
2013-11-28 04:19:00,25.3,15.8,29.91,North,0,0.0,0.0,67,0.00,,,0.00,WUHU21623XXSP,2013-11-28 12:19:00,
2013-11-28 04:24:00,25.2,15.7,29.90,NNE,22,0.0,0.0,67,0.00,,,0.00,WUHU21623XXSP,2013-11-28 12:24:00,
2013-11-28 04:29:00,25.0,15.8,29.91,NE,45,0.0,0.0,68,0.00,,,0.00,WUHU21623XXSP,2013-11-28 12:29:00,
2013-11-28 04:35:00,25.0,15.8,29.91,NE,45,0.0,0.0,68,0.00,,,0.00,WUHU21623XXSP,2013-11-28 12:35:00,
2013-11-28 04:40:00,25.0,15.8,29.91,NE,45,0.0,0.0,68,0.00,,,0.00,WUHU21623XXSP,2013-11-28 12:40:00,
2013-11-28 04:45:00,25.0,15.8,29.91,East,90,0.0,0.0,68,0.00,,,0.00,WUHU21623XXSP,2013-11-28 12:45:00,
2013-11-28 04:50:00,25.0,15.8,29.91,East,90,0.0,0.0,68,0.00,,,0.00,WUHU21623XXSP,2013-11-28 12:50:00,
2013-11-28 04:59:00,25.0,15.8,29.91,East,90,0.0,0.0,68,0.00,,,0.00,WUHU21623XXSP,2013-11-28 12:59:00,
2013-11-28 05:04:00,25.0,15.8,29.91,ENE,67,0.0,0.0,68,0.00,,,0.00,WUHU21623XXSP,2013-11-28 13:04:00,
2013-11-28 05:09:00,25.0,15.8,29.92,SW,225,0.0,0.0,68,0.00,,,0.00,WUHU21623XXSP,2013-11-28 13:09:00,
2013-11-28 05:14:00,24.8,15.7,29.92,WNW,292,0.0,0.0,69,0.00,,,0.00,WUHU21623XXSP,2013-11-28 13:14:00,
2013-11-28 05:19:00,25.0,16.2,29.92,WNW,292,0.0,0.0,69,0.00,,,0.00,WUHU21623XXSP,2013-11-28 13:19:00,
2013-11-28 05:24:00,24.8,16.3,29.92,West,270,0.0,0.0,70,0.00,,,0.00,WUHU21623XXSP,2013-11-28 13:24:00,
2013-11-28 05:31:00,24.8,16.3,29.92,SW,225,0.0,0.0,70,0.00,,,0.00,WUHU21623XXSP,2013-11-28 13:31:00,
2013-11-28 05:36:00,24.8,16.2,29.92,NW,315,0.0,0.0,70,0.00,,,0.00,WUHU21623XXSP,2013-11-28 13:36:00,
2013-11-28 05:42:00,24.8,16.3,29.92,North,0,0.0,0.0,70,0.00,,,0.00,WUHU21623XXSP,2013-11-28 13:42:00,
2013-11-28 05:47:00,24.6,16.2,29.92,North,0,0.0,0.0,70,0.00,,,0.00,WUHU21623XXSP,2013-11-28 13:47:00,
2013-11-28 05:52:00,24.6,16.2,29.92,North,0,0.0,0.0,70,0.00,,,0.00,WUHU21623XXSP,2013-11-28 13:52:00,
2013-11-28 05:57:00,24.6,16.2,29.93,North,0,0.0,0.0,70,0.00,,,0.00,WUHU21623XXSP,2013-11-28 13:57:00,
2013-11-28 06:12:00,24.6,16.5,29.93,ENE,67,0.0,0.0,71,0.00,,,0.00,WUHU21623XXSP,2013-11-28 14:12:00,
2013-11-28 06:17:00,24.8,16.7,29.93,ESE,112,0.0,0.0,71,0.00,,,0.00,WUHU21623XXSP,2013-11-28 14:17:00,
2013-11-28 06:22:00,25.0,16.8,29.92,ESE,112,0.0,0.0,71,0.00,,,0.00,WUHU21623XXSP,2013-11-28 14:22:00,
2013-11-28 06:27:00,25.0,16.8,29.93,NE,45,0.0,0.0,71,0.00,,,0.00,WUHU21623XXSP,2013-11-28 14:27:00,
2013-11-28 06:32:00,25.0,17.1,29.93,ENE,67,0.0,0.0,72,0.00,,,0.00,WUHU21623XXSP,2013-11-28 14:32:00,
2013-11-28 06:37:00,25.0,17.1,29.93,ENE,67,0.0,0.0,72,0.00,,,0.00,WUHU21623XXSP,2013-11-28 14:37:00,
2013-11-28 06:42:00,25.2,17.3,29.93,ENE,67,0.0,0.0,72,0.00,,,0.00,WUHU21623XXSP,2013-11-28 14:42:00,
2013-11-28 06:48:00,25.2,17.3,29.93,SSE,157,0.0,0.0,72,0.00,,,0.00,WUHU21623XXSP,2013-11-28 14:48:00,
2013-11-28 06:53:00,25.3,17.5,29.93,SE,135,0.0,0.0,72,0.00,,,0.00,WUHU21623XXSP,2013-11-28 14:53:00,
2013-11-28 06:58:00,25.3,17.5,29.93,SSE,157,0.0,0.0,72,0.00,,,0.00,WUHU21623XXSP,2013-11-28 14:58:00,
2013-11-28 06:59:00,25.3,17.5,29.94,SSW,202,0.0,0.0,72,0.00,,,0.00,WUHU21623XXSP,2013-11-28 14:59:00,
2013-11-28 07:12:00,25.3,17.5,29.94,WNW,292,0.0,0.0,72,0.00,,,0.00,WUHU21623XXSP,2013-11-28 15:12:00,
2013-11-28 07:17:00,25.3,17.5,29.94,WNW,292,0.0,0.0,72,0.00,,,0.00,WUHU21623XXSP,2013-11-28 15:17:00,
2013-11-28 07:22:00,25.3,17.5,29.94,WNW,292,0.0,0.0,72,0.00,,,0.00,WUHU21623XXSP,2013-11-28 15:22:00,
2013-11-28 07:29:00,25.2,17.3,29.94,NE,45,0.0,0.0,72,0.00,,,0.00,WUHU21623XXSP,2013-11-28 15:29:00,
2013-11-28 07:34:00,25.2,17.3,29.94,NE,45,0.0,0.0,72,0.00,,,0.00,WUHU21623XXSP,2013-11-28 15:34:00,
2013-11-28 07:40:00,25.0,17.1,29.95,SE,135,0.0,0.0,72,0.00,,,0.00,WUHU21623XXSP,2013-11-28 15:40:00,
2013-11-28 07:45:00,25.0,17.1,29.95,SE,135,0.0,0.0,72,0.00,,,0.00,WUHU21623XXSP,2013-11-28 15:45:00,
2013-11-28 07:50:00,25.0,17.1,29.96,NE,45,0.0,1.1,72,0.00,,,0.00,WUHU21623XXSP,2013-11-28 15:50:00,
2013-11-28 07:55:00,25.0,17.1,29.95,East,90,0.0,0.0,72,0.00,,,0.00,WUHU21623XXSP,2013-11-28 15:55:00,
2013-11-28 08:01:00,25.0,17.1,29.95,SE,135,0.0,0.0,72,0.00,,,0.00,WUHU21623XXSP,2013-11-28 16:01:00,
2013-11-28 08:07:00,25.0,17.1,29.96,SE,135,0.0,0.0,72,0.00,,,0.00,WUHU21623XXSP,2013-11-28 16:07:00,
2013-11-28 08:12:00,25.0,17.1,29.96,SE,135,0.0,0.0,72,0.00,,,0.00,WUHU21623XXSP,2013-11-28 16:12:00,
2013-11-28 08:22:00,25.0,17.1,29.96,NE,45,0.0,0.0,72,0.00,,,0.00,WUHU21623XXSP,2013-11-28 16:22:00,
2013-11-28 08:27:00,25.2,17.3,29.96,NNE,22,0.0,0.0,72,0.00,,,0.00,WUHU21623XXSP,2013-11-28 16:27:00,
2013-11-28 08:32:00,25.2,17.3,29.97,NNE,22,0.0,0.0,72,0.00,,,0.00,WUHU21623XXSP,2013-11-28 16:32:00,
2013-11-28 08:37:00,25.5,18.0,29.96,NNE,22,0.0,0.0,73,0.00,,,0.00,WUHU21623XXSP,2013-11-28 16:37:00,
2013-11-28 08:45:00,26.1,18.8,29.96,ESE,112,0.0,0.0,74,0.00,,,0.00,WUHU21623XXSP,2013-11-28 16:45:00,
2013-11-28 08:52:00,26.6,19.4,29.96,SSW,202,0.0,0.0,74,0.00,,,0.00,WUHU21623XXSP,2013-11-28 16:52:00,
2013-11-28 08:57:00,27.0,19.7,29.96,WNW,292,0.0,0.0,74,0.00,,,0.00,WUHU21623XXSP,2013-11-28 16:57:00,
2013-11-28 09:03:00,27.3,20.1,29.96,WSW,247,0.0,0.0,74,0.00,,,0.00,WUHU21623XXSP,2013-11-28 17:03:00,
2013-11-28 09:08:00,27.7,20.4,29.96,West,270,0.0,0.0,74,0.00,,,0.00,WUHU21623XXSP,2013-11-28 17:08:00,
2013-11-28 09:13:00,28.0,20.8,29.96,West,270,0.0,0.0,74,0.00,,,0.00,WUHU21623XXSP,2013-11-28 17:13:00,
2013-11-28 09:18:00,28.8,21.6,29.96,SSW,202,0.0,0.0,75,0.00,,,0.00,WUHU21623XXSP,2013-11-28 17:18:00,
2013-11-28 09:23:00,28.9,21.8,29.96,SSW,202,0.0,0.0,75,0.00,,,0.00,WUHU21623XXSP,2013-11-28 17:23:00,
2013-11-28 09:28:00,29.5,22.3,29.96,WSW,247,0.0,0.0,75,0.00,,,0.00,WUHU21623XXSP,2013-11-28 17:28:00,
2013-11-28 09:35:00,30.2,23.2,29.96,South,180,0.0,0.0,75,0.00,,,0.00,WUHU21623XXSP,2013-11-28 17:35:00,
2013-11-28 09:40:00,30.4,23.4,29.96,SW,225,0.0,0.0,75,0.00,,,0.00,WUHU21623XXSP,2013-11-28 17:40:00,
2013-11-28 09:46:00,31.3,24.3,29.97,SE,135,0.0,0.0,75,0.00,,,0.00,WUHU21623XXSP,2013-11-28 17:46:00,
2013-11-28 09:51:00,31.6,24.3,29.97,SE,135,0.0,0.0,74,0.00,,,0.00,WUHU21623XXSP,2013-11-28 17:51:00,
2013-11-28 09:56:00,32.2,24.8,29.96,South,180,0.0,0.0,74,0.00,,,0.00,WUHU21623XXSP,2013-11-28 17:56:00,
2013-11-28 10:01:00,32.7,25.1,29.97,South,180,1.3,1.3,74,0.00,,,0.00,WUHU21623XXSP,2013-11-28 18:01:00,
2013-11-28 10:12:00,32.9,25.5,29.97,SE,135,0.0,1.3,74,0.00,,,0.00,WUHU21623XXSP,2013-11-28 18:12:00,
2013-11-28 10:17:00,34.3,26.5,29.97,SW,225,0.0,0.0,73,0.00,,,0.00,WUHU21623XXSP,2013-11-28 18:17:00,
2013-11-28 10:24:00,35.2,27.4,29.96,West,270,2.0,2.0,73,0.00,,,0.00,WUHU21623XXSP,2013-11-28 18:24:00,
2013-11-28 10:29:00,35.8,27.6,29.96,SSE,157,0.0,2.0,72,0.00,,,0.00,WUHU21623XXSP,2013-11-28 18:29:00,
2013-11-28 10:34:00,36.3,28.1,29.96,WNW,292,0.0,0.0,72,0.00,,,0.00,WUHU21623XXSP,2013-11-28 18:34:00,
2013-11-28 10:48:00,37.8,28.9,29.96,WNW,292,0.0,0.0,71,0.00,,,0.00,WUHU21623XXSP,2013-11-28 18:48:00,
2013-11-28 10:54:00,39.4,30.0,29.96,WNW,292,0.0,0.0,69,0.00,,,0.00,WUHU21623XXSP,2013-11-28 18:54:00,
2013-11-28 10:59:00,39.9,30.5,29.95,SE,135,0.0,0.0,69,0.00,,,0.00,WUHU21623XXSP,2013-11-28 18:59:00,
2013-11-28 11:04:00,41.0,31.4,29.95,North,0,0.0,0.0,68,0.00,,,0.00,WUHU21623XXSP,2013-11-28 19:04:00,
2013-11-28 11:09:00,41.4,31.6,29.95,NW,315,0.0,0.0,68,0.00,,,0.00,WUHU21623XXSP,2013-11-28 19:09:00,
2013-11-28 11:14:00,43.0,32.3,29.95,SE,135,0.0,0.0,66,0.00,,,0.00,WUHU21623XXSP,2013-11-28 19:14:00,
2013-11-28 11:16:00,43.5,32.4,29.95,SE,135,0.0,0.0,66,0.00,,,0.00,WUHU21623XXSP,2013-11-28 19:16:00,
2013-11-28 11:22:00,44.4,33.0,29.94,SE,135,0.0,0.0,64,0.00,,,0.00,WUHU21623XXSP,2013-11-28 19:22:00,
2013-11-28 11:31:00,46.2,33.9,29.94,South,180,0.0,0.0,62,0.00,,,0.00,WUHU21623XXSP,2013-11-28 19:31:00,
2013-11-28 11:35:00,47.1,34.4,29.93,NNW,337,0.0,0.0,61,0.00,,,0.00,WUHU21623XXSP,2013-11-28 19:35:00,
2013-11-28 11:48:00,48.4,33.8,29.93,ENE,67,0.0,1.3,57,0.00,,,0.00,WUHU21623XXSP,2013-11-28 19:48:00,
2013-11-28 11:53:00,48.7,34.1,29.93,NNW,337,0.0,0.0,57,0.00,,,0.00,WUHU21623XXSP,2013-11-28 19:53:00,
2013-11-28 11:58:00,49.3,34.2,29.93,NE,45,0.0,0.0,56,0.00,,,0.00,WUHU21623XXSP,2013-11-28 19:58:00,
2013-11-28 12:03:00,49.6,34.5,29.93,NNE,22,0.0,0.0,56,0.00,,,0.00,WUHU21623XXSP,2013-11-28 20:03:00,
2013-11-28 12:08:00,50.2,34.1,29.93,SSE,157,0.0,0.0,54,0.00,,,0.00,WUHU21623XXSP,2013-11-28 20:08:00,
2013-11-28 12:13:00,51.6,35.4,29.93,NW,315,2.5,2.5,54,0.00,,,0.00,WUHU21623XXSP,2013-11-28 20:13:00,
2013-11-28 12:18:00,52.2,35.0,29.92,West,270,0.0,4.5,52,0.00,,,0.00,WUHU21623XXSP,2013-11-28 20:18:00,
2013-11-28 12:23:00,52.5,34.9,29.92,WNW,292,0.9,4.5,51,0.00,,,0.00,WUHU21623XXSP,2013-11-28 20:23:00,
2013-11-28 12:28:00,52.9,34.8,29.92,West,270,3.1,3.1,50,0.00,,,0.00,WUHU21623XXSP,2013-11-28 20:28:00,
2013-11-28 12:33:00,53.2,34.5,29.93,WNW,292,3.1,3.1,49,0.00,,,0.00,WUHU21623XXSP,2013-11-28 20:33:00,
2013-11-28 12:38:00,53.2,34.0,29.93,NNW,337,1.3,3.1,48,0.00,,,0.00,WUHU21623XXSP,2013-11-28 20:38:00,
2013-11-28 12:43:00,52.9,33.1,29.92,West,270,3.1,3.1,47,0.00,,,0.00,WUHU21623XXSP,2013-11-28 20:43:00,
2013-11-28 12:48:00,52.5,32.8,29.92,WNW,292,2.2,3.1,47,0.00,,,0.00,WUHU21623XXSP,2013-11-28 20:48:00,
2013-11-28 12:54:00,52.5,32.8,29.92,West,270,2.2,2.2,47,0.00,,,0.00,WUHU21623XXSP,2013-11-28 20:54:00,
2013-11-28 12:59:00,52.9,33.7,29.92,NW,315,1.6,2.2,48,0.00,,,0.00,WUHU21623XXSP,2013-11-28 20:59:00,
2013-11-28 13:05:00,53.4,34.1,29.92,NW,315,4.0,4.0,48,0.00,,,0.00,WUHU21623XXSP,2013-11-28 21:05:00,
2013-11-28 13:14:00,54.7,35.0,29.92,NW,315,5.1,5.1,48,0.00,,,0.00,WUHU21623XXSP,2013-11-28 21:14:00,
2013-11-28 13:19:00,54.7,34.2,29.91,WNW,292,0.0,5.1,46,0.00,,,0.00,WUHU21623XXSP,2013-11-28 21:19:00,
2013-11-28 13:24:00,55.2,34.1,29.91,NW,315,0.0,0.0,45,0.00,,,0.00,WUHU21623XXSP,2013-11-28 21:24:00,
2013-11-28 13:31:00,55.8,34.0,29.91,WNW,292,3.1,3.1,44,0.00,,,0.00,WUHU21623XXSP,2013-11-28 21:31:00,
2013-11-28 13:36:00,55.9,34.0,29.91,NW,315,6.3,6.3,44,0.00,,,0.00,WUHU21623XXSP,2013-11-28 21:36:00,
2013-11-28 13:41:00,55.9,33.1,29.91,NW,315,2.7,6.3,42,0.00,,,0.00,WUHU21623XXSP,2013-11-28 21:41:00,
2013-11-28 13:47:00,55.8,32.9,29.91,West,270,0.0,4.7,42,0.00,,,0.00,WUHU21623XXSP,2013-11-28 21:47:00,
2013-11-28 13:52:00,55.6,32.7,29.91,WNW,292,1.6,1.6,42,0.00,,,0.00,WUHU21623XXSP,2013-11-28 21:52:00,
2013-11-28 14:03:00,55.2,32.4,29.91,North,0,0.0,1.6,42,0.00,,,0.00,WUHU21623XXSP,2013-11-28 22:03:00,
2013-11-28 14:08:00,54.5,31.8,29.91,ENE,67,0.0,1.3,42,0.00,,,0.00,WUHU21623XXSP,2013-11-28 22:08:00,
2013-11-28 14:13:00,54.3,31.6,29.92,NE,45,0.0,0.0,42,0.00,,,0.00,WUHU21623XXSP,2013-11-28 22:13:00,
2013-11-28 14:18:00,54.1,32.0,29.92,West,270,1.8,1.8,43,0.00,,,0.00,WUHU21623XXSP,2013-11-28 22:18:00,
2013-11-28 14:23:00,54.1,32.0,29.92,WNW,292,0.0,1.8,43,0.00,,,0.00,WUHU21623XXSP,2013-11-28 22:23:00,
2013-11-28 14:28:00,54.1,32.0,29.92,WNW,292,4.7,4.7,43,0.00,,,0.00,WUHU21623XXSP,2013-11-28 22:28:00,
2013-11-28 14:33:00,54.0,31.8,29.92,WNW,292,2.0,4.7,43,0.00,,,0.00,WUHU21623XXSP,2013-11-28 22:33:00,
2013-11-28 14:38:00,53.8,31.1,29.91,NW,315,3.4,3.4,42,0.00,,,0.00,WUHU21623XXSP,2013-11-28 22:38:00,
2013-11-28 14:44:00,53.2,30.6,29.91,WNW,292,2.2,3.4,42,0.00,,,0.00,WUHU21623XXSP,2013-11-28 22:44:00,
2013-11-28 14:50:00,52.9,30.3,29.92,WNW,292,3.1,3.1,42,0.00,,,0.00,WUHU21623XXSP,2013-11-28 22:50:00,
2013-11-28 14:55:00,52.7,30.1,29.92,WNW,292,4.7,4.7,42,0.00,,,0.00,WUHU21623XXSP,2013-11-28 22:55:00,
2013-11-28 15:00:00,52.3,29.8,29.92,NW,315,0.9,4.7,42,0.00,,,0.00,WUHU21623XXSP,2013-11-28 23:00:00,
2013-11-28 15:07:00,51.6,29.7,29.92,NNW,337,5.1,5.4,43,0.00,,,0.00,WUHU21623XXSP,2013-11-28 23:07:00,
2013-11-28 15:12:00,51.3,29.4,29.92,WNW,292,3.1,5.1,43,0.00,,,0.00,WUHU21623XXSP,2013-11-28 23:12:00,
2013-11-28 15:17:00,51.1,29.8,29.92,NNW,337,4.9,4.9,44,0.00,,,0.00,WUHU21623XXSP,2013-11-28 23:17:00,
2013-11-28 15:26:00,50.5,29.3,29.93,WNW,292,0.9,4.0,44,0.00,,,0.00,WUHU21623XXSP,2013-11-28 23:26:00,
2013-11-28 15:31:00,50.4,29.2,29.93,NW,315,3.8,3.8,44,0.00,,,0.00,WUHU21623XXSP,2013-11-28 23:31:00,
2013-11-28 15:37:00,50.2,29.6,29.93,NW,315,1.1,3.8,45,0.00,,,0.00,WUHU21623XXSP,2013-11-28 23:37:00,
2013-11-28 15:46:00,49.8,29.2,29.93,WNW,292,0.0,1.1,45,0.00,,,0.00,WUHU21623XXSP,2013-11-28 23:46:00,
2013-11-28 15:51:00,49.6,29.0,29.93,WNW,292,0.9,0.9,45,0.00,,,0.00,WUHU21623XXSP,2013-11-28 23:51:00,
2013-11-28 15:56:00,49.3,29.2,29.93,WNW,292,2.2,2.2,46,0.00,,,0.00,WUHU21623XXSP,2013-11-28 23:56:00,
2013-11-28 16:01:00,49.3,29.2,29.93,WNW,292,2.5,2.5,46,0.00,,,0.00,WUHU21623XXSP,2013-11-29 00:01:00,
2013-11-28 16:06:00,48.9,28.9,29.93,WNW,292,0.0,2.5,46,0.00,,,0.00,WUHU21623XXSP,2013-11-29 00:06:00,
2013-11-28 16:11:00,48.7,29.3,29.94,WNW,292,2.0,2.0,47,0.00,,,0.00,WUHU21623XXSP,2013-11-29 00:11:00,
2013-11-28 16:16:00,48.7,29.3,29.94,NW,315,1.3,2.0,47,0.00,,,0.00,WUHU21623XXSP,2013-11-29 00:16:00,
2013-11-28 16:21:00,48.4,28.9,29.94,West,270,0.0,1.3,47,0.00,,,0.00,WUHU21623XXSP,2013-11-29 00:21:00,
2013-11-28 16:26:00,48.0,28.6,29.94,NNW,337,0.0,0.0,47,0.00,,,0.00,WUHU21623XXSP,2013-11-29 00:26:00,
2013-11-28 16:33:00,47.5,28.1,29.95,East,90,0.0,0.0,47,0.00,,,0.00,WUHU21623XXSP,2013-11-29 00:33:00,
2013-11-28 16:38:00,47.3,27.9,29.94,NE,45,0.0,0.0,47,0.00,,,0.00,WUHU21623XXSP,2013-11-29 00:38:00,
2013-11-28 16:43:00,46.9,27.6,29.94,ENE,67,0.0,0.0,47,0.00,,,0.00,WUHU21623XXSP,2013-11-29 00:43:00,
2013-11-28 16:50:00,46.6,27.3,29.95,NE,45,0.0,0.0,47,0.00,,,0.00,WUHU21623XXSP,2013-11-29 00:50:00,
2013-11-28 16:55:00,46.2,27.0,29.95,NE,45,0.0,0.0,47,0.00,,,0.00,WUHU21623XXSP,2013-11-29 00:55:00,
2013-11-28 17:03:00,45.7,27.0,29.95,NE,45,0.0,0.0,48,0.00,,,0.00,WUHU21623XXSP,2013-11-29 01:03:00,
2013-11-28 17:08:00,45.3,26.9,29.96,NE,45,0.0,0.0,48,0.00,,,0.00,WUHU21623XXSP,2013-11-29 01:08:00,
2013-11-28 17:09:00,45.1,26.7,29.96,NE,45,0.0,0.0,48,0.00,,,0.00,WUHU21623XXSP,2013-11-29 01:09:00,
2013-11-28 17:20:00,44.6,26.2,29.96,WNW,292,0.0,0.0,48,0.00,,,0.00,WUHU21623XXSP,2013-11-29 01:20:00,
2013-11-28 17:25:00,44.4,25.9,29.96,NW,315,0.0,0.0,48,0.00,,,0.00,WUHU21623XXSP,2013-11-29 01:25:00,
2013-11-28 17:30:00,44.1,25.6,29.96,NW,315,0.0,0.0,48,0.00,,,0.00,WUHU21623XXSP,2013-11-29 01:30:00,
2013-11-28 17:35:00,43.3,25.6,29.96,NW,315,0.0,0.0,49,0.00,,,0.00,WUHU21623XXSP,2013-11-29 01:35:00,
2013-11-28 17:40:00,43.2,25.5,29.96,NW,315,0.0,0.0,49,0.00,,,0.00,WUHU21623XXSP,2013-11-29 01:40:00,
2013-11-28 17:45:00,42.6,24.8,29.97,NW,315,0.0,0.0,49,0.00,,,0.00,WUHU21623XXSP,2013-11-29 01:45:00,
2013-11-28 17:56:00,41.9,24.6,29.97,ESE,112,0.0,0.0,50,0.00,,,0.00,WUHU21623XXSP,2013-11-29 01:56:00,
2013-11-28 18:01:00,41.5,24.3,29.97,ENE,67,0.0,0.0,50,0.00,,,0.00,WUHU21623XXSP,2013-11-29 02:01:00,
2013-11-28 18:07:00,40.8,23.6,29.98,NNE,22,0.0,0.0,50,0.00,,,0.00,WUHU21623XXSP,2013-11-29 02:07:00,
2013-11-28 18:17:00,39.9,23.2,29.98,West,270,0.0,0.0,51,0.00,,,0.00,WUHU21623XXSP,2013-11-29 02:17:00,
2013-11-28 18:22:00,39.6,23.0,29.98,West,270,0.0,0.0,51,0.00,,,0.00,WUHU21623XXSP,2013-11-29 02:22:00,
2013-11-28 18:30:00,39.0,22.8,29.98,West,270,0.0,0.0,52,0.00,,,0.00,WUHU21623XXSP,2013-11-29 02:30:00,
2013-11-28 18:37:00,38.5,22.3,29.98,West,270,0.0,0.0,52,0.00,,,0.00,WUHU21623XXSP,2013-11-29 02:37:00,
2013-11-28 18:42:00,38.1,22.2,29.98,West,270,0.0,0.0,52,0.00,,,0.00,WUHU21623XXSP,2013-11-29 02:42:00,
2013-11-28 18:54:00,37.2,21.6,29.99,WSW,247,0.0,0.0,53,0.00,,,0.00,WUHU21623XXSP,2013-11-29 02:54:00,
2013-11-28 19:02:00,36.7,21.1,29.99,ENE,67,0.0,0.0,53,0.00,,,0.00,WUHU21623XXSP,2013-11-29 03:02:00,
2013-11-28 19:08:00,36.3,21.0,29.99,East,90,0.0,0.0,54,0.00,,,0.00,WUHU21623XXSP,2013-11-29 03:08:00,
2013-11-28 19:13:00,36.1,21.1,29.99,East,90,0.0,0.0,54,0.00,,,0.00,WUHU21623XXSP,2013-11-29 03:13:00,
2013-11-28 19:20:00,35.8,21.2,29.99,East,90,0.0,0.0,55,0.00,,,0.00,WUHU21623XXSP,2013-11-29 03:20:00,
2013-11-28 19:25:00,35.4,21.2,30.00,East,90,0.0,0.0,55,0.00,,,0.00,WUHU21623XXSP,2013-11-29 03:25:00,
2013-11-28 19:30:00,35.2,20.8,29.99,East,90,0.0,0.0,55,0.00,,,0.00,WUHU21623XXSP,2013-11-29 03:30:00,
2013-11-28 19:35:00,35.2,20.7,30.00,East,90,0.0,0.0,55,0.00,,,0.00,WUHU21623XXSP,2013-11-29 03:35:00,
2013-11-28 19:43:00,34.7,20.1,30.00,ENE,67,0.0,0.0,55,0.00,,,0.00,WUHU21623XXSP,2013-11-29 03:43:00,
2013-11-28 19:58:00,34.2,20.0,30.01,East,90,0.0,0.0,56,0.00,,,0.00,WUHU21623XXSP,2013-11-29 03:58:00,
2013-11-28 20:05:00,33.6,19.9,30.01,ENE,67,0.0,0.0,57,0.00,,,0.00,WUHU21623XXSP,2013-11-29 04:05:00,
2013-11-28 20:10:00,33.6,19.9,30.01,ENE,67,0.0,0.0,57,0.00,,,0.00,WUHU21623XXSP,2013-11-29 04:10:00,
2013-11-28 20:15:00,33.4,19.8,30.01,South,180,0.0,0.0,57,0.00,,,0.00,WUHU21623XXSP,2013-11-29 04:15:00,
2013-11-28 20:20:00,32.9,19.4,30.01,SSE,157,0.0,0.0,57,0.00,,,0.00,WUHU21623XXSP,2013-11-29 04:20:00,
2013-11-28 20:25:00,32.9,19.7,30.01,SSW,202,0.0,0.0,58,0.00,,,0.00,WUHU21623XXSP,2013-11-29 04:25:00,
2013-11-28 20:30:00,32.7,19.5,30.01,SW,225,0.0,0.0,58,0.00,,,0.00,WUHU21623XXSP,2013-11-29 04:30:00,
2013-11-28 20:37:00,32.2,19.1,30.01,East,90,0.0,0.0,58,0.00,,,0.00,WUHU21623XXSP,2013-11-29 04:37:00,
2013-11-28 20:42:00,32.2,19.1,30.02,East,90,0.0,0.0,58,0.00,,,0.00,WUHU21623XXSP,2013-11-29 04:42:00,
2013-11-28 20:50:00,31.6,18.5,30.02,NE,45,0.0,0.0,58,0.00,,,0.00,WUHU21623XXSP,2013-11-29 04:50:00,
2013-11-28 20:55:00,31.3,18.2,30.02,ESE,112,0.0,0.0,58,0.00,,,0.00,WUHU21623XXSP,2013-11-29 04:55:00,
2013-11-28 21:00:00,31.3,18.6,30.02,East,90,0.0,0.0,59,0.00,,,0.00,WUHU21623XXSP,2013-11-29 05:00:00,
2013-11-28 21:01:00,31.3,18.6,30.02,East,90,0.0,0.0,59,0.00,,,0.00,WUHU21623XXSP,2013-11-29 05:01:00,
2013-11-28 21:03:00,30.9,18.2,30.02,NE,45,0.0,0.0,59,0.00,,,0.00,WUHU21623XXSP,2013-11-29 05:03:00,
2013-11-28 21:09:00,30.7,18.1,30.02,NE,45,0.0,0.0,59,0.00,,,0.00,WUHU21623XXSP,2013-11-29 05:09:00,
2013-11-28 21:15:00,30.4,18.1,30.02,NE,45,0.0,0.0,60,0.00,,,0.00,WUHU21623XXSP,2013-11-29 05:15:00,
2013-11-28 21:20:00,30.4,18.1,30.02,NE,45,0.0,0.0,60,0.00,,,0.00,WUHU21623XXSP,2013-11-29 05:20:00,
2013-11-28 21:25:00,30.0,17.8,30.03,NE,45,0.0,0.0,60,0.00,,,0.00,WUHU21623XXSP,2013-11-29 05:25:00,
2013-11-28 21:30:00,29.8,17.8,30.03,NE,45,0.0,0.0,60,0.00,,,0.00,WUHU21623XXSP,2013-11-29 05:30:00,
2013-11-28 21:35:00,29.8,17.6,30.04,NE,45,0.0,0.0,60,0.00,,,0.00,WUHU21623XXSP,2013-11-29 05:35:00,
2013-11-28 21:40:00,29.5,17.3,30.04,NE,45,0.0,0.0,60,0.00,,,0.00,WUHU21623XXSP,2013-11-29 05:40:00,
2013-11-28 21:45:00,29.5,17.3,30.04,NE,45,0.0,0.0,60,0.00,,,0.00,WUHU21623XXSP,2013-11-29 05:45:00,
2013-11-28 21:50:00,29.1,17.1,30.04,NNW,337,0.0,0.0,60,0.00,,,0.00,WUHU21623XXSP,2013-11-29 05:50:00,
2013-11-28 22:02:00,28.9,16.8,30.04,NW,315,0.0,0.0,60,0.00,,,0.00,WUHU21623XXSP,2013-11-29 06:02:00,
2013-11-28 22:11:00,28.8,16.7,30.04,NW,315,0.0,0.0,60,0.00,,,0.00,WUHU21623XXSP,2013-11-29 06:11:00,
2013-11-28 22:16:00,28.6,16.9,30.05,NW,315,0.0,0.0,61,0.00,,,0.00,WUHU21623XXSP,2013-11-29 06:16:00,
2013-11-28 22:21:00,28.6,16.9,30.05,NW,315,0.0,0.0,61,0.00,,,0.00,WUHU21623XXSP,2013-11-29 06:21:00,
2013-11-28 22:26:00,28.6,17.2,30.05,NW,315,0.0,0.0,62,0.00,,,0.00,WUHU21623XXSP,2013-11-29 06:26:00,
2013-11-28 22:31:00,28.6,17.2,30.05,NW,315,0.0,0.0,62,0.00,,,0.00,WUHU21623XXSP,2013-11-29 06:31:00,
2013-11-28 22:36:00,28.4,17.1,30.05,NE,45,0.0,0.0,62,0.00,,,0.00,WUHU21623XXSP,2013-11-29 06:36:00,
2013-11-28 22:41:00,28.2,16.9,30.05,NE,45,0.0,0.0,62,0.00,,,0.00,WUHU21623XXSP,2013-11-29 06:41:00,
2013-11-28 22:46:00,28.2,16.9,30.05,NE,45,0.0,0.0,62,0.00,,,0.00,WUHU21623XXSP,2013-11-29 06:46:00,
2013-11-28 22:52:00,28.2,17.2,30.05,NE,45,0.0,0.0,63,0.00,,,0.00,WUHU21623XXSP,2013-11-29 06:52:00,
2013-11-28 22:57:00,28.2,17.2,30.05,ENE,67,0.0,0.0,63,0.00,,,0.00,WUHU21623XXSP,2013-11-29 06:57:00,
2013-11-28 23:02:00,28.2,17.2,30.05,ENE,67,0.0,0.0,63,0.00,,,0.00,WUHU21623XXSP,2013-11-29 07:02:00,
2013-11-28 23:07:00,28.0,17.1,30.05,NE,45,0.0,0.0,63,0.00,,,0.00,WUHU21623XXSP,2013-11-29 07:07:00,
2013-11-28 23:13:00,28.0,17.1,30.05,NE,45,0.0,0.0,63,0.00,,,0.00,WUHU21623XXSP,2013-11-29 07:13:00,
2013-11-28 23:18:00,27.9,16.9,30.05,NE,45,0.0,0.0,63,0.00,,,0.00,WUHU21623XXSP,2013-11-29 07:18:00,
2013-11-28 23:26:00,27.7,16.7,30.05,NE,45,0.0,0.0,63,0.00,,,0.00,WUHU21623XXSP,2013-11-29 07:26:00,
2013-11-28 23:31:00,27.5,16.5,30.05,NE,45,0.0,0.0,63,0.00,,,0.00,WUHU21623XXSP,2013-11-29 07:31:00,
2013-11-28 23:36:00,27.5,16.5,30.05,NE,45,0.0,0.0,63,0.00,,,0.00,WUHU21623XXSP,2013-11-29 07:36:00,
2013-11-28 23:43:00,27.1,16.5,30.06,WNW,292,0.0,0.0,64,0.00,,,0.00,WUHU21623XXSP,2013-11-29 07:43:00,
2013-11-28 23:48:00,27.1,16.5,30.06,NW,315,0.0,0.0,64,0.00,,,0.00,WUHU21623XXSP,2013-11-29 07:48:00,
2013-11-28 23:54:00,27.1,16.5,30.06,NW,315,0.0,0.0,64,0.00,,,0.00,WUHU21623XXSP,2013-11-29 07:54:00,
2013-11-28 23:59:00,27.0,16.3,30.06,NW,315,0.0,0.0,64,0.00,,,0.00,WUHU21623XXSP,2013-11-29 07:59:00,